Flag for Germany Weather past 2 weeks in Frankfurt, Hesse, Germany

59 °F

Light rain. Partly sunny.

Feels Like: 57 °F
Forecast: 49 / 61 °F
Wind: 9 mph from Southwest

Location: Frankfurt-M-Flughafen Airport

Current Time: Oct 7, 2015 at 8:00:54 PM

Latest Report: Oct 7, 2015 at 7:20 PM

Visibility: N/A

Pressure: 29.98 "Hg

Humidity: 77%

Dew point: 52 °F

Location of FrankfurtLocation

Historic Weather in Frankfurt — Graph


Frankfurt temperature yesterday

Maximum temperature yesterday: 66 °F (at 2:20 PM)
Minimum temperature yesterday: 57 °F (at 1:20 AM)
Average temperature yesterday: 62 °F

Past Weeks' High & Low Weather Summary

High68 °F (Oct 2, 3:20 PM)100% (Sep 24, 4:50 AM)30.60 "Hg (Sep 24, 4:50 AM)
Low43 °F (Oct 2, 6:20 AM)32% (Oct 1, 3:50 PM)29.59 "Hg (Sep 22, 6:20 PM)
Average57 °F71%30.15 "Hg
* Reported Sep 22 6:20 PM — Oct 7 6:50 PM, Frankfurt, Weather by CustomWeather, © 2015

Note: Actual official high and low records may vary slightly from our data, if they occured in-between our weather recording intervals... More about our weather records


Frankfurt weather history for previous 24 hours

Time TempWeatherWind HumidityBarometerVisibility
6:50 PM
Wed, Oct 7
59 °FLight rain. Broken clouds.8 mph82%29.98 "HgN/A
6:20 PM59 °FLight rain. Broken clouds.6 mph82%29.95 "HgN/A
5:50 PM61 °FLight rain. Broken clouds.9 mph77%29.95 "HgN/A
5:20 PM61 °FSprinkles. Broken clouds.10 mph77%29.95 "HgN/A
4:50 PM63 °FScattered showers. Broken clouds.9 mph73%29.95 "HgN/A
4:20 PM63 °FSprinkles. Broken clouds.12 mph73%29.95 "HgN/A
3:50 PM63 °FPartly sunny.12 mph68%29.92 "HgN/A
3:20 PM63 °FPartly sunny.15 mph68%29.92 "HgN/A
2:50 PM63 °FPartly sunny.15 mph68%29.92 "HgN/A
2:20 PM63 °FPartly sunny.15 mph68%29.92 "HgN/A
1:50 PM63 °FPartly sunny.15 mph68%29.92 "HgN/A
1:20 PM63 °FPartly sunny.16 mph68%29.92 "HgN/A
12:50 PM63 °FBroken clouds.16 mph68%29.92 "HgN/A
12:20 PM63 °FScattered clouds.20 mph68%29.89 "HgN/A
11:50 AM63 °FScattered clouds.14 mph73%29.89 "HgN/A
11:20 AM61 °FPartly sunny.9 mph77%29.89 "HgN/A
10:50 AM61 °FBroken clouds.14 mph77%29.89 "HgN/A
10:20 AM61 °FPartly sunny.9 mph88%29.86 "HgN/A
9:50 AM61 °FPartly sunny.9 mph88%29.86 "HgN/A
9:20 AM59 °FBroken clouds.9 mph94%29.83 "HgN/A
8:50 AM59 °FBroken clouds.6 mph94%29.83 "HgN/A
8:20 AM59 °FPartly cloudy.6 mph94%29.83 "HgN/A
7:50 AM59 °FPassing clouds.3 mph94%29.80 "HgN/A
7:20 AM59 °FPassing clouds.3 mph94%29.80 "HgN/A
6:50 AM57 °FPassing clouds.7 mph100%29.80 "HgN/A
6:20 AM59 °FPassing clouds.5 mph94%29.80 "HgN/A
5:20 AM59 °FPartly cloudy.7 mph94%29.77 "HgN/A
4:50 AM59 °FPartly cloudy.9 mph94%29.77 "HgN/A
4:20 AM59 °FPassing clouds.7 mph94%29.77 "HgN/A
3:50 AM59 °FPartly cloudy.5 mph100%29.77 "HgN/A
3:20 AM59 °FPassing clouds.5 mph94%29.77 "HgN/A
2:50 AM59 °FPartly cloudy.6 mph94%29.74 "HgN/A
2:20 AM59 °FPartly cloudy.3 mph94%29.74 "HgN/A
1:50 AM59 °FPassing clouds.1 mph94%29.74 "HgN/A
1:20 AM59 °FFog.1 mph94%29.74 "HgN/A
12:50 AM57 °FFog.3 mph100%29.74 "HgN/A
12:20 AM59 °FPassing clouds.2 mph94%29.74 "HgN/A
11:50 PM
Tue, Oct 6
59 °FFog.3 mph94%29.74 "HgN/A
11:20 PM61 °FPassing clouds.7 mph94%29.74 "HgN/A
10:50 PM61 °FPassing clouds.8 mph94%29.74 "HgN/A
10:20 PM61 °FPartly cloudy.7 mph94%29.74 "HgN/A
9:50 PM61 °FPassing clouds.6 mph100%29.74 "HgN/A
9:20 PM63 °FPartly cloudy.6 mph94%29.71 "HgN/A
8:50 PM63 °FPassing clouds.7 mph94%29.71 "HgN/A
8:20 PM63 °FPartly cloudy.7 mph94%29.71 "HgN/A
Weather by CustomWeather, © 2015

See weather overviewHow to use our weather pages